[[{"header":{"parameterUnit":"m.s-1","parameterCategory":1,"la1":30.2991,"la2":30.254,"lo1":-89.0895,"lo2":-89.0444,"dy":0.0017,"dx":0.0017,"nx":28,"ny":28,"refTime":"2024-05-03T09:00:00:Z","depth":0,"parameterNumber":2,"parameterNumberName":"U-component_of_WINDS"},"data":[0,0,0,0,0,0,0,0,0,0,0,0,0,0,0,0,0,0,0,0,0,0,0,0,0,0,0,0,0,0,0,0,0,0,0,0,0,0,0,0,0,0,0,0,0,0,0,0,0,0,0,0,0,0,0,0,0,0,-1.0401,-1.04,0,-1.0297,-1.0296,-1.0295,-1.0202,-1.02,-1.0199,-1.0198,-1.0091,-1.0089,-1.0087,0,0,0,0,0,0,0,0,0,0,0,0,0,-1.0519,-1.0517,-1.0402,-1.04,-1.0399,-1.0298,-1.0296,-1.0295,-1.0202,-1.02,-1.0199,-1.0198,-1.0091,-1.0089,-1.0087,0,0,0,0,0,0,0,0,0,0,0,0,0,-1.0447,-1.0517,-1.0402,-1.034,-1.0334,-1.0298,-1.0296,-1.0294,-1.0202,-1.02,-1.0199,-1.0197,-1.0092,-1.0089,-1.0087,-1.0103,0,0,-1.0078,-1.0077,0,0,0,0,0,0,0,0,-1.0451,-1.0443,-1.0351,-1.0345,-1.0337,-1.0261,-1.0298,-1.023,-1.0202,-1.0252,-1.0198,-1.0196,-1.0149,-1.0141,-1.0125,-1.0098,-1.0093,-1.0078,-1.0076,-1.0075,-1.0074,0,0,0,0,0,0,0,-1.0456,-1.0447,-1.036,-1.035,-1.0341,-1.0318,-1.0306,-1.0285,-1.0211,-1.0248,-1.0241,-1.023,-1.0145,-1.0128,-1.0122,-1.0092,-1.0078,-1.0076,-1.0074,-1.0073,-1.0072,-1.0073,0,0,0,0,0,0,-1.0471,-1.0451,-1.0364,-1.0357,-1.0391,-1.0317,-1.0303,-1.0287,-1.0211,-1.0198,-1.0231,-1.0226,-1.0134,-1.0125,-1.0118,-1.0131,-1.0075,-1.0073,-1.0071,-1.007,-1.0072,-1.0074,0,0,0,0,0,0,-1.0474,-1.0464,-1.0368,-1.0402,-1.0388,-1.0317,-1.0299,-1.0286,-1.0269,-1.0198,-1.0185,-1.0228,-1.0132,-1.0122,-1.0107,-1.0126,-1.0071,-1.0069,-1.0068,-1.0071,-1.0073,-1.0159,0,0,0,0,0,0,-1.0477,-1.0465,-1.0471,-1.0403,-1.0387,-1.036,-1.03,-1.0285,-1.0265,-1.0257,-1.0192,-1.0179,-1.013,-1.0112,-1.0105,-1.0122,-1.0067,-1.0066,-1.0069,-1.0072,-1.0154,-1.0164,-1.0173,0,0,0,0,0,-1.0482,-1.0499,-1.0472,-1.0462,-1.0392,-1.0361,-1.0351,-1.0294,-1.0267,-1.0271,-1.0226,-1.0181,-1.0126,-1.0111,-1.0102,-1.0119,-1.0065,-1.0068,-1.0072,-1.015,-1.0162,-1.0173,0,0,0,0,0,0,-1.0571,-1.0489,-1.0458,-1.0454,-1.0415,-1.0345,-1.0349,-1.0309,-1.0277,-1.0271,-1.0201,-1.0187,-1.0181,-1.0148,-1.0133,-1.013,-1.0089,-1.0091,-1.0152,-1.0163,-1.0172,-1.018,-1.0064,0,0,0,0,0,-1.059,-1.0572,-1.0501,-1.0504,-1.0486,-1.0422,-1.0406,-1.0365,-1.0322,-1.0305,-1.0258,-1.0218,-1.0191,-1.0175,-1.0146,-1.0149,-1.0134,-1.0156,-1.0165,-1.0173,-1.0176,-1.0175,-1.0184,-1.0086,-1.0086,-1.0086,0,0,-1.0629,-1.0583,-1.0575,-1.0521,-1.0486,-1.0468,-1.0408,-1.0392,-1.0378,-1.0302,-1.0286,-1.0251,-1.0201,-1.0195,-1.019,-1.0168,-1.02,-1.0178,-1.0185,-1.0183,-1.018,-1.0189,-1.0197,-1.0088,-1.0088,-1.0087,0,0,-1.0692,-1.0655,-1.0653,-1.062,-1.0568,-1.0525,-1.0525,-1.0461,-1.0434,-1.0417,-1.036,-1.0342,-1.0297,-1.0264,-1.0242,-1.0292,-1.025,-1.0285,-1.0333,-1.0333,-1.0341,-1.0347,-1.0365,-1.0373,-1.0288,-1.0288,-1.0288,0,-1.0747,-1.0718,-1.0658,-1.0645,-1.0623,-1.0554,-1.0552,-1.0522,-1.0464,-1.045,-1.0426,-1.0368,-1.033,-1.0315,-1.0328,-1.0312,-1.0309,-1.0292,-1.0345,-1.0351,-1.0356,-1.0372,-1.0379,-1.0292,-1.0292,-1.0291,-1.0291,0,-1.0789,-1.077,-1.0775,-1.0721,-1.0699,-1.0692,-1.063,-1.0615,-1.0577,-1.0536,-1.0519,-1.0471,-1.0431,-1.0425,-1.0387,-1.0405,-1.0393,-1.0358,-1.0315,-1.0371,-1.0385,-1.0391,-1.0299,-1.0297,-1.0296,-1.0295,0,0,-1.0904,-1.0817,-1.082,-1.0794,-1.0732,-1.0716,-1.0706,-1.0667,-1.0656,-1.0618,-1.0607,-1.0572,-1.0539,-1.0513,-1.0471,-1.0471,-1.0514,-1.0435,-1.0433,-1.0452,-1.0531,-1.0558,-1.0566,-1.0486,-1.0487,-1.0487,-1.0535,0,-1.0956,-1.0934,-1.0879,-1.0873,-1.0855,-1.079,-1.078,-1.0741,-1.0703,-1.0682,-1.0639,-1.0615,-1.0573,-1.0558,-1.0555,-1.051,-1.0529,-1.0505,-1.0475,-1.0475,-1.049,-1.0574,-1.0602,-1.0649,-1.054,-1.0541,-1.0542,0,-1.1014,-1.0981,-1.0974,-1.0913,-1.0903,-1.0896,-1.0856,-1.0837,-1.0791,-1.0763,-1.0735,-1.0689,-1.0674,-1.0635,-1.0613,-1.0598,-1.0583,-1.0559,-1.0559,-1.0554,-1.0512,-1.0571,-1.0663,-1.067,-1.055,-1.0549,-1.0549,0,-1.1099,-1.1052,-1.1042,-1.1022,-1.0951,-1.0947,-1.0917,-1.087,-1.0851,-1.0816,-1.0803,-1.0767,-1.0748,-1.0721,-1.0666,-1.0642,-1.0651,-1.0607,-1.0627,-1.0628,-1.0631,-1.0632,-1.0723,-1.0622,-1.0622,-1.0622,-1.0621,0,-1.1163,-1.1161,-1.1079,-1.1073,-1.1069,-1.1006,-1.1003,-1.0967,-1.0926,-1.0911,-1.0852,-1.084,-1.0768,-1.0747,-1.0704,-1.0692,-1.0684,-1.0661,-1.065,-1.0666,-1.0669,-1.0655,-1.065,-1.0623,-1.0623,-1.0623,-1.0622,0,-1.1256,-1.1202,-1.1186,-1.112,-1.1103,-1.1104,-1.1047,-1.1038,-1.0997,-1.0979,-1.0971,-1.0906,-1.0878,-1.0821,-1.0777,-1.0748,-1.0747,-1.0727,-1.0763,-1.0756,-1.0779,-1.0778,-1.0864,-1.0872,-1.0767,-1.0768,-1.0769,0,-1.1301,-1.1298,-1.1232,-1.1218,-1.1191,-1.1169,-1.1149,-1.1087,-1.1069,-1.1017,-1.1014,-1.0982,-1.0953,-1.0912,-1.0861,-1.0827,-1.0805,-1.0838,-1.08,-1.0817,-1.0806,-1.0807,-1.0806,-1.0846,-1.0848,-1.0849,-1.085,0,-1.1385,-1.1358,-1.1332,-1.1297,-1.1275,-1.1243,-1.1209,-1.1201,-1.1131,-1.1113,-1.1085,-1.1062,-1.1018,-1.0987,-1.0946,-1.0914,-1.0871,-1.0862,-1.0865,-1.0882,-1.0903,-1.0892,-1.0786,-1.0861,-1.0859,-1.0859,-1.0858,-1.0858,-1.1455,-1.145,-1.1403,-1.1375,-1.1343,-1.1313,-1.1301,-1.1259,-1.1234,-1.1194,-1.1158,-1.1133,-1.1087,-1.1028,-1.0999,-1.0978,-1.0957,-1.0961,-1.0962,-1.0964,-1.0971,-1.0907,-1.097,-1.097,-1.097,-1.0969,-1.0969,0,-1.1536,-1.1503,-1.1479,-1.1433,-1.1412,-1.1373,-1.1333,-1.1318,-1.1296,-1.1257,-1.123,-1.1198,-1.1167,-1.1114,-1.1079,-1.1072,-1.1051,-1.1065,-1.1065,-1.1058,-1.0992,-1.0993,-1.1083,-1.1083,-1.1083,-1.1083,-1.1083,-1.1083,-1.1576,-1.1565,-1.1533,-1.1505,-1.1471,-1.1446,-1.1427,-1.1398,-1.1367,-1.1333,-1.1308,-1.1273,-1.1229,-1.119,-1.1161,-1.1145,-1.1135,-1.1156,-1.1135,-1.1074,-1.1063,-1.1053,-1.1053,-1.1154,-1.1154,-1.1202,-1.1203,-1.1203]},{"header":{"parameterUnit":"m.s-1","parameterCategory":1,"la1":30.2991,"la2":30.254,"lo1":-89.0895,"lo2":-89.0444,"dy":0.0017,"dx":0.0017,"nx":28,"ny":28,"refTime":"2024-05-03T09:00:00:Z","depth":0,"parameterNumber":3,"parameterNumberName":"V-component_of_WINDS"},"data":[0,0,0,0,0,0,0,0,0,0,0,0,0,0,0,0,0,0,0,0,0,0,0,0,0,0,0,0,0,0,0,0,0,0,0,0,0,0,0,0,0,0,0,0,0,0,0,0,0,0,0,0,0,0,0,0,0,0,0.5796,0.5796,0,0.5798,0.5798,0.5798,0.5807,0.5808,0.5808,0.5808,0.5807,0.5807,0.5807,0,0,0,0,0,0,0,0,0,0,0,0,0,0.58,0.58,0.5796,0.5796,0.5796,0.5798,0.5798,0.5798,0.5807,0.5808,0.5808,0.5808,0.5807,0.5807,0.5807,0,0,0,0,0,0,0,0,0,0,0,0,0,0.5799,0.58,0.5796,0.5801,0.5802,0.5798,0.5798,0.5798,0.5807,0.5808,0.5808,0.5808,0.5807,0.5807,0.5807,0.5797,0,0,0.5805,0.5805,0,0,0,0,0,0,0,0,0.5799,0.5799,0.5801,0.5801,0.5801,0.5803,0.5799,0.5797,0.5807,0.5805,0.5808,0.5809,0.5805,0.5805,0.5804,0.5797,0.5797,0.5805,0.5805,0.5805,0.5805,0,0,0,0,0,0,0,0.5799,0.5799,0.5797,0.58,0.5801,0.5803,0.5803,0.5798,0.5803,0.5805,0.5806,0.5806,0.5806,0.5805,0.5804,0.5797,0.5805,0.5805,0.5805,0.5805,0.5782,0.5781,0,0,0,0,0,0,0.5799,0.5799,0.5797,0.5797,0.5801,0.5803,0.5803,0.5802,0.5803,0.5804,0.5806,0.5807,0.5805,0.5805,0.5804,0.5794,0.5805,0.5805,0.5804,0.5782,0.5782,0.5781,0,0,0,0,0,0,0.5799,0.5799,0.5797,0.5798,0.5798,0.5802,0.5801,0.5802,0.5801,0.5804,0.5804,0.5804,0.5806,0.5805,0.5799,0.5794,0.5804,0.5804,0.5783,0.5782,0.5781,0.5771,0,0,0,0,0,0,0.5799,0.5799,0.5795,0.5798,0.5798,0.5792,0.5801,0.5802,0.5801,0.5802,0.5802,0.5803,0.5806,0.58,0.5799,0.5793,0.5804,0.5783,0.5782,0.5782,0.5772,0.5771,0.5769,0,0,0,0,0,0.5799,0.5792,0.5795,0.5795,0.5794,0.5791,0.5791,0.5795,0.58,0.5797,0.5799,0.5803,0.5794,0.5799,0.5798,0.5792,0.5783,0.5783,0.5782,0.5773,0.5771,0.5769,0,0,0,0,0,0,0.5787,0.5792,0.5796,0.5789,0.579,0.5793,0.5789,0.5793,0.5792,0.5792,0.5797,0.5797,0.579,0.5791,0.5796,0.5783,0.579,0.5789,0.5783,0.5781,0.578,0.578,0.5803,0,0,0,0,0,0.5784,0.5782,0.5786,0.578,0.578,0.5784,0.5783,0.5787,0.5787,0.5787,0.5788,0.5788,0.5785,0.5783,0.5781,0.5772,0.5773,0.5768,0.5767,0.5765,0.5764,0.576,0.5758,0.5778,0.5778,0.5778,0,0,0.5777,0.5779,0.5778,0.5778,0.5778,0.5776,0.5784,0.5781,0.5779,0.5786,0.5781,0.5782,0.5782,0.5775,0.5772,0.5775,0.5759,0.5764,0.5763,0.5763,0.5759,0.5757,0.5755,0.5778,0.5778,0.5778,0,0,0.5763,0.5765,0.576,0.5761,0.5762,0.5765,0.5764,0.5767,0.5768,0.5763,0.5769,0.5766,0.5761,0.5761,0.5761,0.5747,0.5751,0.5746,0.5738,0.5734,0.5733,0.5731,0.5727,0.5725,0.5745,0.5745,0.5745,0,0.5754,0.5751,0.5756,0.5753,0.5753,0.5761,0.5756,0.5756,0.5756,0.5756,0.576,0.5755,0.5755,0.5748,0.5745,0.5744,0.5743,0.5746,0.5732,0.5731,0.573,0.5726,0.5724,0.5745,0.5745,0.5745,0.5745,0,0.5739,0.5737,0.5733,0.5734,0.5734,0.5729,0.5734,0.5733,0.5736,0.5739,0.5734,0.5735,0.5733,0.5732,0.5735,0.5725,0.5727,0.5732,0.5738,0.5727,0.5723,0.5722,0.5744,0.5744,0.5744,0.5744,0,0,0.5717,0.5723,0.5721,0.5722,0.5725,0.5723,0.5719,0.5718,0.5717,0.5717,0.5714,0.571,0.5715,0.5714,0.5717,0.5713,0.5703,0.5718,0.5718,0.5716,0.5693,0.569,0.5688,0.5706,0.5706,0.5706,0.5693,0,0.5704,0.5698,0.5704,0.5697,0.5695,0.5703,0.5699,0.57,0.5703,0.5701,0.5703,0.5701,0.5707,0.5706,0.5703,0.5705,0.5699,0.5706,0.5703,0.5702,0.5702,0.5686,0.5682,0.567,0.5692,0.5692,0.5691,0,0.5687,0.5688,0.5681,0.5685,0.5684,0.5681,0.5682,0.568,0.5681,0.5683,0.5683,0.5687,0.5684,0.569,0.5685,0.569,0.5689,0.5689,0.5689,0.5689,0.5696,0.5685,0.5667,0.5665,0.5689,0.5689,0.5689,0,0.5672,0.5671,0.5667,0.5667,0.5672,0.567,0.5671,0.5673,0.5673,0.5673,0.5672,0.5671,0.5671,0.567,0.5674,0.5678,0.5668,0.5675,0.5669,0.5669,0.5666,0.5666,0.5647,0.5666,0.5666,0.5666,0.5666,0,0.5656,0.5652,0.566,0.5658,0.5653,0.5659,0.5654,0.5657,0.5658,0.5656,0.5662,0.566,0.5666,0.5664,0.5667,0.5662,0.5661,0.5663,0.5663,0.5662,0.5662,0.5661,0.5662,0.5665,0.5665,0.5665,0.5665,0,0.5638,0.5643,0.564,0.5645,0.5646,0.5642,0.5646,0.5644,0.5647,0.5644,0.5644,0.5649,0.5647,0.5651,0.5649,0.5651,0.5644,0.5647,0.5644,0.5645,0.5639,0.5639,0.5619,0.5617,0.5636,0.5636,0.5636,0,0.5627,0.5624,0.5629,0.5629,0.5631,0.5629,0.5629,0.5636,0.5635,0.5637,0.5634,0.5633,0.5633,0.563,0.5632,0.5631,0.5633,0.5626,0.5633,0.5632,0.5633,0.5633,0.5633,0.5625,0.5624,0.5624,0.5624,0,0.5608,0.5611,0.5612,0.5613,0.5613,0.5614,0.5615,0.5614,0.5621,0.562,0.5619,0.5618,0.5617,0.5616,0.5616,0.5617,0.5621,0.5622,0.5621,0.5619,0.5618,0.5619,0.564,0.5622,0.5623,0.5623,0.5623,0.5623,0.5594,0.5592,0.5595,0.5595,0.5597,0.5598,0.5597,0.56,0.56,0.56,0.5604,0.5602,0.5604,0.5604,0.5605,0.5603,0.5606,0.5604,0.5604,0.5603,0.5602,0.5619,0.5603,0.5603,0.5603,0.5603,0.5603,0,0.5575,0.5578,0.5578,0.558,0.558,0.5586,0.5588,0.5587,0.5586,0.5587,0.5587,0.5586,0.5585,0.5589,0.5588,0.5586,0.5588,0.5586,0.5586,0.5586,0.5599,0.5601,0.5584,0.5584,0.5584,0.5584,0.5584,0.5584,0.5565,0.5562,0.5566,0.5564,0.5567,0.5566,0.5566,0.5568,0.5569,0.5568,0.5568,0.557,0.5573,0.5573,0.5572,0.5573,0.5572,0.5569,0.5571,0.5583,0.5585,0.5587,0.5588,0.5569,0.5569,0.5557,0.5557,0.5557]}]]